Abingdon, VA

10:08 AM EST on November 13, 2019 (GMT -0500)
Virginia Highlands

Weather History for KVJI - June, 2019

Change the Weather History Date:

Sunday, June 9, 2019

  Actual Average (WUND) Record (WUND)
Temperature  
Mean Temperature 68 °F -  
Max Temperature 73 °F - - (-1)
Min Temperature 64 °F - - (-1)
Cooling Degree Days 4    
Growing Degree Days 18 (Base 50)    
Moisture  
Dew Point 66 °F    
Average Humidity 94    
Maximum Humidity 100    
Minimum Humidity 79    
Precipitation  
Precipitation 0.23 in - - ()
Sea Level Pressure  
Sea Level Pressure 30.02 in    
Wind  
Wind Speed 10 mph (East)    
Max Wind Speed 14 mph    
Max Gust Speed 17 mph    
Visibility 10 miles    
Events Rain    
Averages and records for this station are not official NWS values.
T = Trace of Precipitation, MM = Missing Value Source: NWS Daily Summary

Daily Weather History Graph

Daily Weather History Graph

Search for Another Location

Airport or City:

Astronomy

Jun. 09, 2019 Rise Set
Actual Time 6:09 AM EDT 8:45 PM EDT
Civil Twilight 5:38 AM EDT 9:16 PM EDT
Nautical Twilight 5:00 AM EDT 9:54 PM EDT
Astronomical Twilight 4:18 AM EDT 10:36 PM EDT
Moon 12:40 PM EDT (6/9) 1:29 AM EDT (6/9)
Length of Visible Light 15h 37m
Length of Day
14h 36m
Waxing Crescent, 43% of the Moon is Illuminated
Jun 9
Waxing Crescent
Jun 10
First Quarter
Jun 17
Full
Jun 25
Last Quarter
Jul 2
New

Hourly Weather History & Observations

Time (EDT) Temp. Dew Point Humidity Pressure Visibility Wind Dir Wind Speed Gust Speed Precip Events Conditions
12:15 AM 64.0 °F 64.0 °F 100% 30.00 in 10.0 mi East 11.5 mph - N/A   Overcast
12:35 AM 64.0 °F 64.0 °F 100% 30.00 in 10.0 mi East 11.5 mph - N/A   Mostly Cloudy
12:55 AM 64.2 °F 64.2 °F 100% 30.00 in 10.0 mi East 10.4 mph - N/A   Mostly Cloudy
1:15 AM 64.4 °F 64.4 °F 100% 30.00 in 10.0 mi East 9.2 mph - N/A   Mostly Cloudy
1:35 AM 64.4 °F 64.4 °F 100% 30.00 in 10.0 mi East 6.9 mph - N/A   Overcast
1:55 AM 64.6 °F 64.6 °F 100% 29.99 in 10.0 mi East 9.2 mph - N/A   Overcast
2:15 AM 64.8 °F 64.6 °F 99% 29.99 in 10.0 mi East 8.1 mph - N/A Rain Rain
2:35 AM 64.6 °F 64.6 °F 100% 29.98 in 7.0 mi East 9.2 mph - 0.04 in Rain Light Rain
2:55 AM 64.6 °F 64.6 °F 100% 29.97 in 10.0 mi East 8.1 mph - 0.05 in Rain Light Rain
3:15 AM 64.9 °F 64.9 °F 100% 29.97 in 10.0 mi East 6.9 mph - N/A   Overcast
3:35 AM 65.3 °F 65.3 °F 100% 29.97 in 10.0 mi East 8.1 mph - N/A   Overcast
3:55 AM 65.3 °F 65.3 °F 100% 29.96 in 10.0 mi East 10.4 mph - N/A   Overcast
4:15 AM 65.5 °F 65.5 °F 100% 29.96 in 10.0 mi East 10.4 mph - N/A   Overcast
4:35 AM 65.7 °F 65.3 °F 99% 29.97 in 10.0 mi East 11.5 mph - N/A   Overcast
4:55 AM 65.8 °F 65.3 °F 98% 29.96 in 10.0 mi East 11.5 mph - N/A   Overcast
5:15 AM 66.0 °F 65.3 °F 98% 29.97 in 10.0 mi East 11.5 mph - N/A   Overcast
5:35 AM 66.2 °F 65.3 °F 97% 29.98 in 10.0 mi East 12.7 mph - N/A   Overcast
5:55 AM 66.2 °F 65.3 °F 97% 29.98 in 10.0 mi East 11.5 mph - N/A   Overcast
6:15 AM 65.7 °F 65.3 °F 99% 29.99 in 10.0 mi East 9.2 mph - N/A Rain Light Rain
6:35 AM 65.8 °F 65.7 °F 99% 30.00 in 10.0 mi East 8.1 mph - 0.01 in Rain Light Rain
6:55 AM 65.7 °F 65.7 °F 100% 30.01 in 10.0 mi East 10.4 mph - 0.02 in Rain Rain
7:15 AM 65.8 °F 65.8 °F 100% 30.02 in 10.0 mi East 12.7 mph - N/A   Overcast
7:35 AM 66.2 °F 65.8 °F 99% 30.02 in 10.0 mi East 13.8 mph - N/A Rain Rain
7:55 AM 65.8 °F 65.8 °F 100% 30.02 in 10.0 mi ESE 13.8 mph - 0.01 in Rain Light Rain
8:15 AM 65.7 °F 65.7 °F 100% 30.03 in 10.0 mi East 11.5 mph - 0.02 in Rain Rain
8:35 AM 65.5 °F 65.5 °F 100% 30.03 in 10.0 mi East 11.5 mph - 0.03 in Rain Light Rain
8:55 AM 65.5 °F 65.5 °F 100% 30.04 in 10.0 mi East 11.5 mph - 0.05 in Rain Light Rain
9:15 AM 65.8 °F 65.8 °F 100% 30.05 in 10.0 mi East 9.2 mph - 0.02 in Rain Light Rain
9:35 AM 66.4 °F 66.4 °F 100% 30.05 in 10.0 mi ESE 13.8 mph - 0.02 in   Light Drizzle
9:55 AM 66.6 °F 66.6 °F 100% 30.05 in 10.0 mi East 11.5 mph - 0.03 in Rain Light Rain
10:15 AM 67.3 °F 67.3 °F 100% 30.05 in 10.0 mi East 9.2 mph - N/A   Light Drizzle
10:35 AM 66.9 °F 66.9 °F 100% 30.05 in 10.0 mi East 13.8 mph 17.3 mph N/A   Light Drizzle
10:55 AM 67.3 °F 66.9 °F 99% 30.05 in 10.0 mi East 13.8 mph 17.3 mph N/A   Overcast
11:15 AM 68.0 °F 67.5 °F 98% 30.06 in 10.0 mi East 13.8 mph - N/A   Overcast
11:35 AM 67.6 °F 67.1 °F 98% 30.06 in 10.0 mi East 10.4 mph - 0.01 in Rain Light Rain
11:55 AM 67.8 °F 67.3 °F 98% 30.06 in 10.0 mi East 12.7 mph - 0.02 in   Light Drizzle
12:15 PM 68.0 °F 67.3 °F 98% 30.06 in 10.0 mi East 11.5 mph - N/A Rain Light Rain
12:35 PM 68.2 °F 67.8 °F 99% 30.07 in 10.0 mi East 10.4 mph - 0.01 in Rain Light Rain
12:55 PM 68.4 °F 67.8 °F 98% 30.06 in 10.0 mi East 11.5 mph - 0.02 in Rain Light Rain
1:15 PM 69.3 °F 68.2 °F 96% 30.06 in 10.0 mi East 11.5 mph - N/A Rain Light Rain
1:35 PM 69.1 °F 68.0 °F 96% 30.06 in 10.0 mi East 11.5 mph - 0.01 in Rain Light Rain
1:55 PM 69.1 °F 67.8 °F 96% 30.06 in 10.0 mi East 9.2 mph - 0.01 in Rain Light Rain
2:15 PM 69.8 °F 68.4 °F 95% 30.05 in 10.0 mi East 9.2 mph - N/A Rain Rain
2:35 PM 70.0 °F 68.9 °F 96% 30.04 in 10.0 mi ESE 9.2 mph - 0.01 in Rain Light Rain
2:55 PM 70.2 °F 68.5 °F 95% 30.04 in 10.0 mi East 10.4 mph - 0.01 in Rain Light Rain
3:15 PM 70.7 °F 68.9 °F 94% 30.03 in 10.0 mi East 8.1 mph - 0.01 in   Light Drizzle
3:35 PM 71.1 °F 68.7 °F 92% 30.03 in 10.0 mi East 10.4 mph - 0.01 in   Drizzle
3:55 PM 71.1 °F 68.5 °F 92% 30.03 in 10.0 mi East 9.2 mph - 0.01 in   Light Drizzle
4:15 PM 71.4 °F 68.9 °F 92% 30.02 in 10.0 mi East 10.4 mph - N/A Rain Light Rain
4:35 PM 72.0 °F 69.1 °F 91% 30.02 in 10.0 mi East 11.5 mph - N/A   Scattered Clouds
4:55 PM 72.5 °F 68.9 °F 88% 30.02 in 10.0 mi East 8.1 mph - N/A   Scattered Clouds
5:15 PM 72.9 °F 68.5 °F 86% 30.02 in 10.0 mi East 12.7 mph - N/A   Mostly Cloudy
5:35 PM 73.0 °F 68.0 °F 84% 30.02 in 10.0 mi East 11.5 mph - N/A   Mostly Cloudy
5:55 PM 72.9 °F 67.3 °F 83% 30.02 in 10.0 mi ESE 12.7 mph - N/A   Mostly Cloudy
6:15 PM 72.7 °F 67.1 °F 83% 30.02 in 10.0 mi ESE 11.5 mph - N/A   Scattered Clouds
6:35 PM 72.7 °F 66.7 °F 82% 30.02 in 10.0 mi ESE 6.9 mph - N/A   Mostly Cloudy
6:55 PM 73.4 °F 66.4 °F 79% 30.02 in 10.0 mi ESE 8.1 mph - N/A   Mostly Cloudy
7:15 PM 72.5 °F 65.8 °F 80% 30.01 in 10.0 mi ESE 6.9 mph - N/A   Mostly Cloudy
7:35 PM 72.7 °F 66.2 °F 80% 30.02 in 10.0 mi ESE 8.1 mph - N/A   Overcast
7:55 PM 72.3 °F 66.7 °F 83% 30.02 in 10.0 mi East 6.9 mph - N/A   Overcast
8:15 PM 72.0 °F 66.6 °F 83% 30.02 in 10.0 mi ESE 8.1 mph - N/A   Mostly Cloudy
8:35 PM 71.2 °F 65.3 °F 81% 30.03 in 10.0 mi ESE 8.1 mph - N/A   Scattered Clouds
8:55 PM 70.7 °F 65.1 °F 82% 30.03 in 10.0 mi ESE 8.1 mph - N/A   Scattered Clouds
9:15 PM 69.8 °F 64.8 °F 84% 30.03 in 10.0 mi ESE 8.1 mph - N/A   Mostly Cloudy
9:35 PM 69.4 °F 64.9 °F 86% 30.04 in 10.0 mi ESE 6.9 mph - N/A   Mostly Cloudy
9:55 PM 69.4 °F 64.4 °F 84% 30.04 in 10.0 mi East 6.9 mph - N/A   Mostly Cloudy
10:15 PM 69.1 °F 64.6 °F 86% 30.05 in 10.0 mi ENE 4.6 mph - N/A   Mostly Cloudy
10:35 PM 69.4 °F 64.4 °F 84% 30.06 in 10.0 mi ENE 5.8 mph - N/A   Mostly Cloudy
10:55 PM 68.9 °F 64.8 °F 87% 30.06 in 10.0 mi East 9.2 mph - N/A   Overcast
11:15 PM 68.7 °F 65.3 °F 89% 30.05 in 10.0 mi East 9.2 mph - N/A   Mostly Cloudy
11:35 PM 68.0 °F 65.3 °F 91% 30.04 in 10.0 mi ENE 6.9 mph - N/A   Scattered Clouds
11:55 PM 68.0 °F 64.8 °F 89% 30.04 in 10.0 mi East 8.1 mph - N/A   Clear